Погода в Дзарджане

Погода в Дзарджане : погода сейчас, прогноз погоды и архив. Всё, что Вы хотите узнать о погоде в Дзарджане!

Поиск расширенной информации на нашем сайте:

Другие новости

Новости СМИ2

Главная страница сайта

Новости сайта

02.10.2013

Напоминаем, что на нашем новом сайте вы можете получить высокодетализированные прогнозы погоды по пунктам России, СНГ и мира (включающие важные для авиации метеовеличины, такие как направление и скорость ветра, видимость, явления погоды, количество и форма облачности, нижняя и верхняя граница облачности), а также ознакомиться с разнообразными материалами по авиационной метеорологии и подборкой полезных ссылок на эту тему.

Сайт Метеоцентр.Азия посвящён разработке технологий оптимизации авиаметеорологического обслуживания, включая проектирование и перспективное создание нескольких автоматизированных авиаметеорологических систем:
- система выпуска высокодетальных прогностических карт явлений погоды для нижнего воздушного пространства по России и ближнему зарубежью;
- система верификации прогнозов TAF (выпускаемых синоптиками официальных АМСГ РФ и ближнего зарубежья) и AUTOTAF (выпускаемых сайтом Метеоцентр.Азия) - выявление ошибок, онлайн-сопоставление с фактической погодой METAR, автоматическое внесение коррективов в прогнозы при резком отклонении фактической погоды от прогноза, подсчёт оправдываемости прогнозов по элементам и в целом;
- система обработки, анализа и отображения авиаметеорологической информации для применения провайдерами метеорологической информации.


Погода в Дзарджане - сегодня

Время (UTC), дата Ветер
(°,м/с) 
Видим.   Явления Облачность Т
(°С)
Тd
(°С)
f(%) Тe
(°С)
Pmin
(гПа)
dP
(гПа)
Po
(мм)
O2
(г/м3)
Тmin Tmax R s Состояние
почвы
18 14.01.17 180 (Ю) 20000 м    ясно 
-40.8   1047.5  -0.2  781             
21 14.01.17 тихо ()   20000 м    ясно 
-40 -43.4 70 -40  1047.6  -0.1  781  371           
00 15.01.17 тихо ()   20000 м    ясно 
-40 -43.4 70 -40  1047.4  -0.2  781  371  -41      31  равномерный
сухой снег
100% 
03 15.01.17 тихо ()   20000 м    3/0 верхняя 
[Ci fib]
-40.5 -43.9 69 -41  1047.1  -0.3  781  372           
06 15.01.17 тихо ()   20000 м    3/0 верхняя 
[Ci fib]
-40.4 -43.9 69 -40  1046.6  -0.5  781  371           
09 15.01.17 тихо ()   20000 м    3/0 верхняя 
[Ci fib]
-41.4 -45 68 -41  1046.4  -0.2  780  373           
12 15.01.17 тихо ()   20000 м    4/0 верхняя 
[Ci fib]
-41.3 -44.4 72 -41  1046.3  -0.1  780  373    -40.4       
15 15.01.17 тихо ()   20000 м    3/0 верхняя 
[Ci fib]
-41.9 -45 72 -42  1046.3  780  374           
18 15.01.17 тихо ()   20000 м    3/0 верхняя 
[Ci fib]
-42.7 -46.2 68 -43  1045.6  -0.8  780  375           
21 15.01.17 тихо ()   20000 м    ясно 
-43.3 -46.9 67 -43  1044.2  -1.4  779  375           
00 16.01.17 тихо ()   20000 м    ясно 
-43.1 -46.2 71 -43  1042.9  -1.3  778  374  -43.6      31  равномерный
сухой снег
100% 
03 16.01.17 тихо ()   20000 м    ясно 
-43.5 -46.9 69 -44  1043.4  0.5  778  375           
06 16.01.17 тихо ()   20000 м    ясно 
-42.9 -46.2 70 -43  1042.5  -0.9  777  374           
09 16.01.17 тихо ()   20000 м    ясно 
-43.1 -46.2 71 -43  1041.9  -0.6  777  374           
12 16.01.17 тихо ()   20000 м    ясно 
-43.3 -46.9 67 -43  1041.1  -0.8  776  374    -42.4       
15 16.01.17 тихо ()   20000 м    ясно 
-43.6 -46.9 70 -44  1039.9  -1.2  775  374           
18 16.01.17 тихо ()   20000 м    ясно 
-44.3 -47.6 69 -44  1039  -0.9  775  375           
21 16.01.17 тихо ()   20000 м    ясно 
-45 -48.4 68 -45  1038.3  -0.7  774  376           
00 17.01.17 тихо ()   20000 м    3/0 средняя 
[As op]
-43.4 -46.9 68 -43  1037.7  -0.6  774  373  -44.6      31  неравномерный
сухой снег
100% 
03 17.01.17 тихо ()   20000 м    3/0 средняя 
[As trans]
-43.2 -46.2 72 -43  1036.6  -1.1  773  372           
06 17.01.17 тихо ()   20000 м    5/0 средняя, верхняя 
[Ac As|Ci fib]
-43.1 -46.2 71 -43  1036.2  -0.4  773  372           
09 17.01.17 тихо ()   20000 м    8/0 средняя, верхняя 
[Ac As|Ci fib]
-40.3 -43.9 68 -40  1035.9  -0.1  773  367           
12 17.01.17 тихо ()   20000 м    10/0 средняя, верхняя 
[Ac trans|Ci fib]
-38.4 -42 69 -38  1034.6  -1.3  772  364    -38.4       
15 17.01.17 230 (ЮЗ) 20000 м    10/0 средняя 
[Ac As]
-37.4 -40.8 70 -38  1034.1  -0.4  771  362           
18 17.01.17 230 (ЮЗ) 20000 м    10/0 средняя 
[Ac As]
-37.8 -41.2 70 -42  1033.8  -0.3  771  363           
Время (UTC), дата Ветер
(°,м/с) 
Видим.   Явления Облачность Т
(°С)
Тd
(°С)
f(%) Тe
(°С)
Pmin
(гПа)
dP
(гПа)
Po
(мм)
O2
(г/м3)
Тmin Tmax R s Состояние
почвы

Для получения пояснительной информации подведите курсор к названию столбца.

ПОГОДА в Дзарджане - архив

Всё, что Вы хотите узнать о погоде в Дзарджане - удобно и подробно!

Выберите нужную дату (начиная с 1 января 2015* года) и нажмите кнопку "Найти".
Будут отображены архивные сводки погоды по пункту Дзарджан, начиная с указанной даты.


Отображать данные в формате CSV (для использования в таблицах Excel)


Внимание! Наш архив погоды предназначен исключительно для личного некоммерческого использования в познавательных целях. Если Вам необходимы официальные справки о состоянии погоды (для производственных, юридических, коммерческих и т.п. целей), обращайтесь в органы Росгидромета.

*Примечание: данная дата относится к архиву по метеостанциям СССР (Россия, СНГ, Балтия).
Архив по метеостанциям Зарубежной Европы и Азии (кроме Китая) хранится 10 дней, по другим регионам земного шара (Китай, Африка, Америка, Австралия, Океания) - 1 день.

Дзарджан - район местоположения метеостанции


Название, широта, долгота, высота метеостанции:
Дзарджан 68.7°ш. 124°д. 39 м над ур. моря [Российская Федерация]

Дополнительная информация

В oтличие oт бoльшинства пoгoдных сайтoв мы публикуем пoдрoбную метеoинфoрмацию в детальнoм прoфессиoнальнoм фoрмате.

Характеристики температуры и влажнoсти вoздуха измеряются на высoте 2 м в тени вдали oт зданий и деревьев.
Скoрoсть ветра измеряется на высoте 10 м (на урoвне рoста челoвека скoрoсть ветра ниже в 1.5-2 раза). Если метеoстанция нахoдится в гoрoде или в лесу, тo скoрoсть ветра занижена на 2-4 м/с пo сравнению с oткрытым местoм. Скoрoсть ветра над акватoриями крупных рек и oзёр, а также на вершинах хoлмoв на 2-5 м/с выше, чем в oбычных услoвиях.
Атмoсфернoе давление в разных тoчках местнoсти мoжет значительнo oтличаться oт давления на метеoстанции, в зависимoсти oт услoвий рельефа (при пoдъёме на 10 м давление пoнижается примернo на 1 мм рт.ст.).